ICE520 BIKF-EDDF

Flight info

Callsign ICE520
Flight time 3h 8m
Altitude 35000
Route OSKUM3D OSKUM DCT RATSU/N0451F350 DCT DEVBI DCT LONAM DCT SOGPO DCT DIXAT DIXAT1A
Aircraft B38M/M-SDE1FGHILORVWXY/HB1

Departure

Time 2026-05-03 20:15
Airport Keflavik International Airport (BIKF)

Arrival

Time 2026-05-03 23:23
Airport Frankfurt Main Airport (EDDF)
Time Latitude Longitude Altitude Speed Heading
2026-05-03 20:15 63.93615 -22.79614 6221 ft 281 kts 160°
2026-05-03 20:15 63.91926 -22.77276 7141 ft 291 kts 140°
2026-05-03 20:15 63.90681 -22.73597 7944 ft 299 kts 114°
2026-05-03 20:15 63.90094 -22.69035 8763 ft 305 kts 94°
2026-05-03 20:16 63.89890 -22.64182 9557 ft 312 kts 91°
2026-05-03 20:16 63.89717 -22.59202 10289 ft 322 kts 91°
2026-05-03 20:16 63.89553 -22.53987 10701 ft 342 kts 90°
2026-05-03 20:16 63.89389 -22.48446 11085 ft 361 kts 90°
2026-05-03 20:17 63.89223 -22.42630 11519 ft 376 kts 90°
2026-05-03 20:17 63.89052 -22.36600 12044 ft 388 kts 90°
2026-05-03 20:17 63.88878 -22.30455 12683 ft 393 kts 91°
2026-05-03 20:17 63.88699 -22.24224 13282 ft 399 kts 90°
2026-05-03 20:18 63.88514 -22.17893 13866 ft 404 kts 91°
2026-05-03 20:18 63.88321 -22.11474 14332 ft 410 kts 91°
2026-05-03 20:18 63.88123 -22.04984 14872 ft 414 kts 91°
2026-05-03 20:18 63.87920 -21.98442 15347 ft 418 kts 91°
2026-05-03 20:19 63.87712 -21.91836 15838 ft 422 kts 91°
2026-05-03 20:19 63.87498 -21.85148 16406 ft 426 kts 91°
2026-05-03 20:19 63.87281 -21.78410 16908 ft 431 kts 91°
2026-05-03 20:19 63.87057 -21.71606 17487 ft 435 kts 91°
2026-05-03 20:20 63.86827 -21.64708 17997 ft 440 kts 91°
2026-05-03 20:20 63.86591 -21.57753 18485 ft 444 kts 91°
2026-05-03 20:20 63.86350 -21.50738 18978 ft 448 kts 90°
2026-05-03 20:20 63.86102 -21.43635 19350 ft 455 kts 90°
2026-05-03 20:21 63.85849 -21.36470 19804 ft 458 kts 90°
2026-05-03 20:21 63.85593 -21.29330 20220 ft 462 kts 90°
2026-05-03 20:21 63.85324 -21.21948 20634 ft 466 kts 90°
2026-05-03 20:21 63.85050 -21.14700 21006 ft 470 kts 92°
2026-05-03 20:22 63.84326 -21.07444 21352 ft 477 kts 111°
2026-05-03 20:22 63.82819 -21.00742 21672 ft 481 kts 119°
2026-05-03 20:22 63.81313 -20.93950 22018 ft 484 kts 115°
2026-05-03 20:22 63.79874 -20.87020 22378 ft 488 kts 115°
2026-05-03 20:23 63.78434 -20.79938 22709 ft 490 kts 114°
2026-05-03 20:23 63.77023 -20.72919 23102 ft 492 kts 114°
2026-05-03 20:23 63.75607 -20.65847 23419 ft 496 kts 114°
2026-05-03 20:23 63.74198 -20.58824 23715 ft 498 kts 114°
2026-05-03 20:24 63.72743 -20.51589 24047 ft 502 kts 114°
2026-05-03 20:24 63.71289 -20.44389 24293 ft 505 kts 114°
2026-05-03 20:24 63.69827 -20.37171 24584 ft 508 kts 114°
2026-05-03 20:24 63.68351 -20.29913 24851 ft 510 kts 114°
2026-05-03 20:25 63.66864 -20.22623 25120 ft 512 kts 114°
2026-05-03 20:25 63.65387 -20.15410 25376 ft 515 kts 114°
2026-05-03 20:25 63.63883 -20.08084 25627 ft 517 kts 114°
2026-05-03 20:25 63.62347 -20.00638 25877 ft 519 kts 114°
2026-05-03 20:26 63.60847 -19.93387 26137 ft 521 kts 114°
2026-05-03 20:26 63.59314 -19.86000 26327 ft 523 kts 114°
2026-05-03 20:26 63.57773 -19.78605 26684 ft 522 kts 114°
2026-05-03 20:26 63.56223 -19.71193 26896 ft 525 kts 115°
2026-05-03 20:27 63.54664 -19.63761 27090 ft 527 kts 115°
2026-05-03 20:27 63.53096 -19.56322 27292 ft 529 kts 115°
2026-05-03 20:27 63.51518 -19.48850 27478 ft 533 kts 114°
2026-05-03 20:27 63.49920 -19.41324 27625 ft 535 kts 115°
2026-05-03 20:28 63.48316 -19.33786 27839 ft 537 kts 115°
2026-05-03 20:28 63.46700 -19.26224 28011 ft 539 kts 115°
2026-05-03 20:28 63.45079 -19.18660 28181 ft 541 kts 115°
2026-05-03 20:28 63.43446 -19.11076 28352 ft 542 kts 115°
2026-05-03 20:29 63.41806 -19.03482 28522 ft 544 kts 115°
2026-05-03 20:29 63.40155 -18.95869 28657 ft 546 kts 115°
2026-05-03 20:29 63.38498 -18.88247 28835 ft 546 kts 115°
2026-05-03 20:29 63.36837 -18.80641 29171 ft 543 kts 115°
2026-05-03 20:30 63.35183 -18.73095 29536 ft 540 kts 115°
2026-05-03 20:30 63.33533 -18.65597 29812 ft 539 kts 115°
2026-05-03 20:30 63.31873 -18.58070 29835 ft 547 kts 115°
2026-05-03 20:31 63.28466 -18.42706 29964 ft 562 kts 115°
2026-05-03 20:31 63.24951 -18.26965 30019 ft 576 kts 115°
2026-05-03 20:31 63.23159 -18.18992 30236 ft 578 kts 115°
2026-05-03 20:32 63.21364 -18.11035 30560 ft 577 kts 116°
2026-05-03 20:32 63.19565 -18.03090 30892 ft 574 kts 115°
2026-05-03 20:32 63.17777 -17.95225 31360 ft 570 kts 116°
2026-05-03 20:32 63.15995 -17.87417 31739 ft 568 kts 116°
2026-05-03 20:33 63.14214 -17.79633 32058 ft 567 kts 116°
2026-05-03 20:33 63.12429 -17.71866 32395 ft 566 kts 116°
2026-05-03 20:33 63.10644 -17.64125 32720 ft 564 kts 116°
2026-05-03 20:33 63.08855 -17.56396 33100 ft 563 kts 115°
2026-05-03 20:34 63.07068 -17.48698 33322 ft 565 kts 115°
2026-05-03 20:34 63.05272 -17.40997 33585 ft 564 kts 115°
2026-05-03 20:34 63.03477 -17.33318 33898 ft 563 kts 115°
2026-05-03 20:34 63.01676 -17.25650 34162 ft 562 kts 116°
2026-05-03 20:35 62.99880 -17.18024 34421 ft 560 kts 116°
2026-05-03 20:35 62.98114 -17.10555 34768 ft 556 kts 116°
2026-05-03 20:35 62.96305 -17.02927 34957 ft 555 kts 116°
2026-05-03 20:36 62.93191 -16.89858 34924 ft 550 kts 116°
2026-05-03 20:36 62.89650 -16.75092 34929 ft 551 kts 117°
2026-05-03 20:37 62.86042 -16.60152 34972 ft 551 kts 116°
2026-05-03 20:37 62.82457 -16.45403 34926 ft 553 kts 117°
2026-05-03 20:38 62.78826 -16.30568 34879 ft 553 kts 117°
2026-05-03 20:38 62.75191 -16.15817 34924 ft 551 kts 117°
2026-05-03 20:39 62.71544 -16.01115 34925 ft 551 kts 117°
2026-05-03 20:39 62.67879 -15.86439 34924 ft 551 kts 117°
2026-05-03 20:40 62.64198 -15.71798 34926 ft 551 kts 117°
2026-05-03 20:40 62.60507 -15.57211 34919 ft 551 kts 117°
2026-05-03 20:41 62.56796 -15.42646 34884 ft 550 kts 118°
2026-05-03 20:41 62.53084 -15.28170 34919 ft 548 kts 118°
2026-05-03 20:42 62.49364 -15.13755 34919 ft 548 kts 118°
2026-05-03 20:42 62.45634 -14.99393 34920 ft 548 kts 118°
2026-05-03 20:43 62.41904 -14.85126 34916 ft 548 kts 118°
2026-05-03 20:43 62.38140 -14.70818 34936 ft 549 kts 118°
2026-05-03 20:44 62.34358 -14.56541 34902 ft 548 kts 118°
2026-05-03 20:44 62.30567 -14.42315 34915 ft 548 kts 118°
2026-05-03 20:45 62.26769 -14.28151 34914 ft 548 kts 118°
2026-05-03 20:45 62.22947 -14.13990 34914 ft 548 kts 119°
2026-05-03 20:46 62.19116 -13.99885 34914 ft 548 kts 119°
2026-05-03 20:46 62.15266 -13.85797 34960 ft 548 kts 119°
2026-05-03 20:47 62.11431 -13.71854 34900 ft 546 kts 119°
2026-05-03 20:47 62.07561 -13.57867 34909 ft 547 kts 119°
2026-05-03 20:48 62.03679 -13.43926 34909 ft 546 kts 119°
2026-05-03 20:48 61.99786 -13.30030 34908 ft 546 kts 120°
2026-05-03 20:49 61.95878 -13.16165 34908 ft 546 kts 120°
2026-05-03 20:49 61.92621 -13.04677 34912 ft 547 kts 120°
2026-05-03 20:50 61.88691 -12.90889 34912 ft 545 kts 120°
2026-05-03 20:50 61.84761 -12.77186 34905 ft 544 kts 120°
2026-05-03 20:51 61.80829 -12.63557 34904 ft 544 kts 120°
2026-05-03 20:51 61.76874 -12.49930 34905 ft 544 kts 120°
2026-05-03 20:52 61.72904 -12.36331 34905 ft 544 kts 120°
2026-05-03 20:52 61.68917 -12.22757 34905 ft 544 kts 120°
2026-05-03 20:53 61.64923 -12.09238 34937 ft 543 kts 120°
2026-05-03 20:53 61.60926 -11.95792 34900 ft 541 kts 121°
2026-05-03 20:54 61.56925 -11.82410 34904 ft 541 kts 121°
2026-05-03 20:54 61.50922 -11.62476 34909 ft 541 kts 121°
2026-05-03 20:55 61.46886 -11.49170 34906 ft 542 kts 121°
2026-05-03 20:55 61.42843 -11.35918 34880 ft 540 kts 121°
2026-05-03 20:56 61.38794 -11.22726 34938 ft 539 kts 121°
2026-05-03 20:56 61.34745 -11.09606 34906 ft 538 kts 121°
2026-05-03 20:57 61.30682 -10.96518 34912 ft 538 kts 122°
2026-05-03 20:57 61.26607 -10.83463 34911 ft 538 kts 122°
2026-05-03 20:58 61.22519 -10.70440 34909 ft 538 kts 122°
2026-05-03 20:58 61.18417 -10.57449 34909 ft 538 kts 122°
2026-05-03 20:59 61.14297 -10.44471 34956 ft 538 kts 122°
2026-05-03 20:59 61.10191 -10.31613 34919 ft 533 kts 123°
2026-05-03 21:00 61.06782 -10.20987 34923 ft 534 kts 123°
2026-05-03 21:00 61.01992 -10.06144 34927 ft 534 kts 123°
2026-05-03 21:01 60.98397 -9.92842 34939 ft 531 kts 112°
2026-05-03 21:01 60.95263 -9.79040 34909 ft 531 kts 112°
2026-05-03 21:02 60.92125 -9.65276 34973 ft 531 kts 113°
2026-05-03 21:02 60.88985 -9.51587 34924 ft 527 kts 114°
2026-05-03 21:03 60.85843 -9.37979 34938 ft 528 kts 114°
2026-05-03 21:03 60.82683 -9.24380 34932 ft 528 kts 114°
2026-05-03 21:04 60.79511 -9.10810 34930 ft 528 kts 114°
2026-05-03 21:04 60.76323 -8.97261 34937 ft 528 kts 114°
2026-05-03 21:05 60.73122 -8.83729 34936 ft 527 kts 114°
2026-05-03 21:05 60.69154 -8.71327 34965 ft 523 kts 130°
2026-05-03 21:06 60.64572 -8.59850 34934 ft 525 kts 130°
2026-05-03 21:06 60.59913 -8.48395 34938 ft 525 kts 130°
2026-05-03 21:07 60.55237 -8.36976 34944 ft 525 kts 130°
2026-05-03 21:07 60.50555 -8.25601 34944 ft 525 kts 130°
2026-05-03 21:08 60.45863 -8.14257 34944 ft 524 kts 130°
2026-05-03 21:08 60.41177 -8.02984 34967 ft 520 kts 131°
2026-05-03 21:09 60.36512 -7.91816 34955 ft 520 kts 131°
2026-05-03 21:09 60.31834 -7.80671 34953 ft 520 kts 131°
2026-05-03 21:10 60.27149 -7.69563 34961 ft 520 kts 131°
2026-05-03 21:10 60.22455 -7.58488 34931 ft 519 kts 131°
2026-05-03 21:11 60.17790 -7.47535 34957 ft 519 kts 131°
2026-05-03 21:11 60.13090 -7.36552 34957 ft 519 kts 131°
2026-05-03 21:12 60.08376 -7.25587 34962 ft 519 kts 131°
2026-05-03 21:12 60.03656 -7.14664 34962 ft 519 kts 131°
2026-05-03 21:13 59.98930 -7.03776 34969 ft 519 kts 131°
2026-05-03 21:13 59.94197 -6.92924 34967 ft 518 kts 131°
2026-05-03 21:14 59.89460 -6.82113 34967 ft 517 kts 131°
2026-05-03 21:14 59.84714 -6.71335 34971 ft 517 kts 131°
2026-05-03 21:15 59.79993 -6.60664 34974 ft 518 kts 131°
2026-05-03 21:15 59.75240 -6.49970 34981 ft 513 kts 132°
2026-05-03 21:16 59.70525 -6.39408 34953 ft 512 kts 132°
2026-05-03 21:16 59.65797 -6.28870 34978 ft 511 kts 132°
2026-05-03 21:17 59.61861 -6.20132 34976 ft 511 kts 132°
2026-05-03 21:17 59.56319 -6.07885 34982 ft 511 kts 133°
2026-05-03 21:18 59.51572 -5.97447 34979 ft 511 kts 133°
2026-05-03 21:18 59.46848 -5.87108 34953 ft 511 kts 133°
2026-05-03 21:19 59.42094 -5.76750 34988 ft 508 kts 133°
2026-05-03 21:19 59.37371 -5.66504 34980 ft 506 kts 133°
2026-05-03 21:20 59.32636 -5.56280 34986 ft 506 kts 133°
2026-05-03 21:20 59.27897 -5.46091 34985 ft 506 kts 133°
2026-05-03 21:21 59.23151 -5.35933 34987 ft 506 kts 133°
2026-05-03 21:21 59.18396 -5.25801 34974 ft 505 kts 133°
2026-05-03 21:22 59.13645 -5.15724 34996 ft 505 kts 133°
2026-05-03 21:22 59.08888 -5.05679 34997 ft 503 kts 134°
2026-05-03 21:23 59.04153 -4.95722 34996 ft 502 kts 134°
2026-05-03 21:23 58.99403 -4.85776 34996 ft 502 kts 134°
2026-05-03 21:24 58.94650 -4.75868 34992 ft 502 kts 134°
2026-05-03 21:24 58.89893 -4.65996 34996 ft 502 kts 134°
2026-05-03 21:25 58.85162 -4.56218 34994 ft 501 kts 134°
2026-05-03 21:25 58.80388 -4.46397 34995 ft 501 kts 134°
2026-05-03 21:26 58.75608 -4.36603 35003 ft 501 kts 135°
2026-05-03 21:26 58.70833 -4.26861 34993 ft 500 kts 135°
2026-05-03 21:27 58.66052 -4.17151 34992 ft 500 kts 135°
2026-05-03 21:27 58.61267 -4.07472 34994 ft 500 kts 135°
2026-05-03 21:28 58.56469 -3.97810 34998 ft 500 kts 135°
2026-05-03 21:28 58.51670 -3.88185 34997 ft 500 kts 135°
2026-05-03 21:29 58.46858 -3.78575 34995 ft 500 kts 135°
2026-05-03 21:29 58.42037 -3.68989 34972 ft 499 kts 135°
2026-05-03 21:30 58.37245 -3.59500 35002 ft 496 kts 135°
2026-05-03 21:30 58.32454 -3.50050 35006 ft 496 kts 135°
2026-05-03 21:31 58.27687 -3.40690 35009 ft 496 kts 135°
2026-05-03 21:31 58.22882 -3.31292 35009 ft 496 kts 136°
2026-05-03 21:32 58.18068 -3.21917 35008 ft 496 kts 136°
2026-05-03 21:32 58.13254 -3.12577 35002 ft 495 kts 135°
2026-05-03 21:33 58.08440 -3.03280 35021 ft 493 kts 136°
2026-05-03 21:33 58.03645 -2.94056 35009 ft 491 kts 136°
2026-05-03 21:34 57.98854 -2.84875 35006 ft 491 kts 136°
2026-05-03 21:34 57.94050 -2.75708 35007 ft 491 kts 136°
2026-05-03 21:35 57.89240 -2.66568 34981 ft 491 kts 136°
2026-05-03 21:35 57.84441 -2.57483 35006 ft 489 kts 135°
2026-05-03 21:36 57.79671 -2.48490 35007 ft 489 kts 136°
2026-05-03 21:36 57.74871 -2.39479 35013 ft 488 kts 136°
2026-05-03 21:37 57.70100 -2.30553 34994 ft 483 kts 136°
2026-05-03 21:37 57.65338 -2.21680 34996 ft 484 kts 136°
2026-05-03 21:38 57.60569 -2.12832 35003 ft 482 kts 136°
2026-05-03 21:38 57.55814 -2.04042 35005 ft 481 kts 136°
2026-05-03 21:39 57.51859 -1.96758 35004 ft 481 kts 136°
2026-05-03 21:39 57.47095 -1.88013 35015 ft 481 kts 136°
2026-05-03 21:40 57.42326 -1.79295 35019 ft 481 kts 136°
2026-05-03 21:40 57.37567 -1.70628 35009 ft 478 kts 136°
2026-05-03 21:41 57.32837 -1.62046 35005 ft 474 kts 136°
2026-05-03 21:41 57.28119 -1.53519 35008 ft 473 kts 136°
2026-05-03 21:42 57.23402 -1.45026 35008 ft 474 kts 136°
2026-05-03 21:42 57.18679 -1.36553 35011 ft 474 kts 136°
2026-05-03 21:43 57.13946 -1.28096 35011 ft 474 kts 136°
2026-05-03 21:43 57.09211 -1.19664 35002 ft 473 kts 136°
2026-05-03 21:44 57.04510 -1.11327 35017 ft 467 kts 137°
2026-05-03 21:44 56.99833 -1.03062 35016 ft 467 kts 137°
2026-05-03 21:45 56.95144 -0.94806 35015 ft 467 kts 137°
2026-05-03 21:45 56.90453 -0.86579 35015 ft 467 kts 137°
2026-05-03 21:46 56.85760 -0.78376 35018 ft 467 kts 137°
2026-05-03 21:46 56.81058 -0.70187 35011 ft 467 kts 137°
2026-05-03 21:47 56.76385 -0.62078 35012 ft 467 kts 137°
2026-05-03 21:47 56.71677 -0.53940 35012 ft 467 kts 137°
2026-05-03 21:48 56.66960 -0.45814 35011 ft 467 kts 137°
2026-05-03 21:48 56.62234 -0.37701 35009 ft 467 kts 137°
2026-05-03 21:49 56.57506 -0.29617 35009 ft 467 kts 137°
2026-05-03 21:49 56.52778 -0.21560 35008 ft 466 kts 138°
2026-05-03 21:50 56.48047 -0.13528 35009 ft 466 kts 138°
2026-05-03 21:50 56.43307 -0.05509 35010 ft 466 kts 138°
2026-05-03 21:51 56.38569 0.02477 35007 ft 466 kts 139°
2026-05-03 21:51 56.33834 0.10432 35007 ft 465 kts 139°
2026-05-03 21:52 56.29091 0.18371 34998 ft 465 kts 139°
2026-05-03 21:52 56.24346 0.26286 35007 ft 465 kts 139°
2026-05-03 21:53 56.19595 0.34181 35007 ft 465 kts 139°
2026-05-03 21:53 56.14836 0.42062 35007 ft 465 kts 139°
2026-05-03 21:54 56.10076 0.49917 35004 ft 465 kts 139°
2026-05-03 21:54 56.05315 0.57747 35004 ft 465 kts 140°
2026-05-03 21:55 56.00553 0.65551 35003 ft 463 kts 140°
2026-05-03 21:55 55.95822 0.73276 35002 ft 463 kts 140°
2026-05-03 21:56 55.91059 0.81025 35002 ft 463 kts 140°
2026-05-03 21:56 55.86289 0.88762 35002 ft 463 kts 140°
2026-05-03 21:57 55.81517 0.96476 34999 ft 463 kts 140°
2026-05-03 21:57 55.76739 1.04169 34986 ft 463 kts 140°
2026-05-03 21:58 55.71960 1.11841 34994 ft 463 kts 140°
2026-05-03 21:58 55.67182 1.19482 34990 ft 462 kts 141°
2026-05-03 21:59 55.62401 1.27102 34993 ft 462 kts 141°
2026-05-03 21:59 55.57615 1.34705 34994 ft 462 kts 141°
2026-05-03 22:00 55.52828 1.42283 34986 ft 462 kts 141°
2026-05-03 22:00 55.48032 1.49850 34982 ft 461 kts 141°
2026-05-03 22:01 55.43247 1.57374 34980 ft 461 kts 141°
2026-05-03 22:01 55.38450 1.64890 34988 ft 461 kts 141°
2026-05-03 22:02 55.33657 1.72377 34983 ft 461 kts 142°
2026-05-03 22:02 55.28858 1.79846 34978 ft 461 kts 142°
2026-05-03 22:03 55.24056 1.87294 34964 ft 461 kts 142°
2026-05-03 22:03 55.19254 1.94718 34976 ft 460 kts 142°
2026-05-03 22:04 55.14480 2.02076 34974 ft 460 kts 142°
2026-05-03 22:04 55.09679 2.09447 34974 ft 460 kts 142°
2026-05-03 22:05 55.04864 2.16818 34972 ft 460 kts 142°
2026-05-03 22:05 55.00045 2.24169 34959 ft 460 kts 143°
2026-05-03 22:06 54.95231 2.31489 34965 ft 459 kts 143°
2026-05-03 22:06 54.90419 2.38782 34966 ft 459 kts 143°
2026-05-03 22:07 54.85600 2.46060 34960 ft 459 kts 143°
2026-05-03 22:07 54.80783 2.53314 34955 ft 459 kts 143°
2026-05-03 22:08 54.75953 2.60561 34955 ft 459 kts 143°
2026-05-03 22:08 54.71162 2.67726 34941 ft 458 kts 143°
2026-05-03 22:09 54.66353 2.74897 34943 ft 456 kts 144°
2026-05-03 22:10 54.59151 2.85592 34938 ft 456 kts 144°
2026-05-03 22:10 54.54335 2.92717 34941 ft 456 kts 144°
2026-05-03 22:11 54.49526 2.99812 34938 ft 456 kts 144°
2026-05-03 22:11 54.44712 3.06893 34928 ft 455 kts 144°
2026-05-03 22:12 54.39907 3.13937 34934 ft 454 kts 144°
2026-05-03 22:12 54.35098 3.20965 34916 ft 454 kts 144°
2026-05-03 22:13 54.30296 3.27961 34930 ft 454 kts 144°
2026-05-03 22:13 54.25483 3.34953 34927 ft 454 kts 144°
2026-05-03 22:14 54.20660 3.41937 34925 ft 454 kts 144°
2026-05-03 22:14 54.15851 3.48879 34922 ft 453 kts 144°
2026-05-03 22:15 54.11044 3.55796 34922 ft 452 kts 144°
2026-05-03 22:15 54.06228 3.62705 34922 ft 452 kts 144°
2026-05-03 22:16 54.01441 3.69552 34904 ft 452 kts 144°
2026-05-03 22:16 53.96613 3.76437 34920 ft 453 kts 144°
2026-05-03 22:17 53.91793 3.83288 34916 ft 452 kts 144°
2026-05-03 22:17 53.86972 3.90121 34921 ft 451 kts 144°
2026-05-03 22:18 53.82060 3.96675 34927 ft 449 kts 148°
2026-05-03 22:18 53.77072 4.03056 34920 ft 449 kts 147°
2026-05-03 22:19 53.72118 4.09466 34927 ft 450 kts 147°
2026-05-03 22:19 53.67155 4.15881 34923 ft 449 kts 147°
2026-05-03 22:20 53.62185 4.22287 34931 ft 449 kts 147°
2026-05-03 22:20 53.57216 4.28671 34929 ft 449 kts 147°
2026-05-03 22:21 53.52251 4.35032 34932 ft 449 kts 147°
2026-05-03 22:21 53.47276 4.41386 34931 ft 449 kts 147°
2026-05-03 22:22 53.42301 4.47722 34935 ft 449 kts 147°
2026-05-03 22:22 53.38164 4.52974 34936 ft 449 kts 147°
2026-05-03 22:23 53.33193 4.59269 34939 ft 449 kts 147°
2026-05-03 22:23 53.28204 4.65569 34937 ft 449 kts 147°
2026-05-03 22:24 53.23216 4.71847 34947 ft 449 kts 147°
2026-05-03 22:24 53.18226 4.78110 34936 ft 449 kts 147°
2026-05-03 22:25 53.13243 4.84345 34926 ft 449 kts 147°
2026-05-03 22:25 53.08241 4.90585 34938 ft 449 kts 147°
2026-05-03 22:26 53.03240 4.96806 34936 ft 449 kts 147°
2026-05-03 22:26 52.98233 5.03016 34941 ft 449 kts 147°
2026-05-03 22:27 52.93269 5.09155 34918 ft 449 kts 148°
2026-05-03 22:27 52.88252 5.15339 34922 ft 450 kts 148°
2026-05-03 22:28 52.83224 5.21520 34931 ft 450 kts 148°
2026-05-03 22:28 52.78192 5.27689 34926 ft 450 kts 148°
2026-05-03 22:29 52.73164 5.33832 34927 ft 450 kts 148°
2026-05-03 22:29 52.68130 5.39966 34932 ft 450 kts 148°
2026-05-03 22:30 52.63091 5.46088 34921 ft 450 kts 148°
2026-05-03 22:30 52.58051 5.52192 34919 ft 450 kts 148°
2026-05-03 22:31 52.53012 5.58279 34944 ft 450 kts 148°
2026-05-03 22:31 52.47965 5.64358 34929 ft 450 kts 148°
2026-05-03 22:32 52.42916 5.70420 34930 ft 450 kts 148°
2026-05-03 22:32 52.37862 5.76471 34923 ft 450 kts 149°
2026-05-03 22:33 52.32806 5.82507 34933 ft 451 kts 149°
2026-05-03 22:33 52.27728 5.88551 34933 ft 451 kts 149°
2026-05-03 22:34 52.22663 5.94565 34916 ft 451 kts 149°
2026-05-03 22:34 52.17589 6.00569 34935 ft 451 kts 149°
2026-05-03 22:35 52.12512 6.06563 34924 ft 451 kts 149°
2026-05-03 22:35 52.07452 6.12521 34936 ft 449 kts 149°
2026-05-03 22:36 52.02383 6.18473 34939 ft 449 kts 149°
2026-05-03 22:36 51.97318 6.24412 34938 ft 450 kts 148°
2026-05-03 22:37 51.92442 6.30838 34950 ft 452 kts 146°
2026-05-03 22:37 51.87551 6.37236 34936 ft 450 kts 146°
2026-05-03 22:38 51.82671 6.43587 34949 ft 451 kts 146°
2026-05-03 22:38 51.77789 6.49923 34952 ft 450 kts 146°
2026-05-03 22:39 51.72897 6.56252 34953 ft 450 kts 146°
2026-05-03 22:39 51.68005 6.62563 34949 ft 451 kts 146°
2026-05-03 22:40 51.63104 6.68869 34950 ft 451 kts 147°
2026-05-03 22:40 51.58194 6.75168 34950 ft 453 kts 147°
2026-05-03 22:41 51.53307 6.81420 34960 ft 450 kts 147°
2026-05-03 22:41 51.48405 6.87672 34784 ft 450 kts 147°
2026-05-03 22:41 51.45960 6.90785 34548 ft 449 kts 147°
2026-05-03 22:42 51.43513 6.93896 34308 ft 449 kts 147°
2026-05-03 22:42 51.41060 6.97008 34084 ft 449 kts 147°
2026-05-03 22:42 51.38609 7.00116 33834 ft 449 kts 147°
2026-05-03 22:42 51.36190 7.03178 33173 ft 446 kts 147°
2026-05-03 22:43 51.33748 7.06265 32109 ft 448 kts 147°
2026-05-03 22:43 51.31303 7.09353 31316 ft 445 kts 147°
2026-05-03 22:43 51.28900 7.12385 30842 ft 434 kts 147°
2026-05-03 22:43 51.26517 7.15198 30447 ft 419 kts 156°
2026-05-03 22:44 51.23902 7.17303 29849 ft 424 kts 159°
2026-05-03 22:44 51.21256 7.19427 29238 ft 427 kts 159°
2026-05-03 22:44 51.18606 7.21541 28714 ft 426 kts 159°
2026-05-03 22:44 51.16006 7.23606 28197 ft 423 kts 159°
2026-05-03 22:45 51.13387 7.25678 27650 ft 418 kts 159°
2026-05-03 22:45 51.10809 7.27768 27068 ft 416 kts 158°
2026-05-03 22:45 51.08219 7.29896 26086 ft 419 kts 158°
2026-05-03 22:45 51.05629 7.32016 25213 ft 419 kts 158°
2026-05-03 22:46 51.03063 7.34137 24579 ft 412 kts 158°
2026-05-03 22:46 51.00546 7.36210 24114 ft 401 kts 158°
2026-05-03 22:46 50.98085 7.38235 23637 ft 398 kts 158°
2026-05-03 22:46 50.95635 7.40248 23052 ft 395 kts 158°
2026-05-03 22:47 50.93201 7.42246 22540 ft 392 kts 158°
2026-05-03 22:47 50.90789 7.44224 22042 ft 390 kts 158°
2026-05-03 22:47 50.88381 7.46195 21555 ft 387 kts 158°
2026-05-03 22:47 50.86000 7.48143 21039 ft 385 kts 157°
2026-05-03 22:48 50.83625 7.50083 20569 ft 382 kts 157°
2026-05-03 22:48 50.81270 7.52005 20123 ft 379 kts 157°
2026-05-03 22:48 50.78930 7.53912 19680 ft 377 kts 157°
2026-05-03 22:48 50.76637 7.55779 19250 ft 376 kts 157°
2026-05-03 22:49 50.74319 7.57665 18813 ft 374 kts 157°
2026-05-03 22:49 50.72007 7.59543 18377 ft 373 kts 157°
2026-05-03 22:49 50.69700 7.61415 17871 ft 372 kts 157°
2026-05-03 22:49 50.67402 7.63278 17379 ft 370 kts 157°
2026-05-03 22:50 50.65120 7.65125 17006 ft 366 kts 157°
2026-05-03 22:50 50.62876 7.66940 16990 ft 363 kts 157°
2026-05-03 22:50 50.60625 7.68759 17000 ft 363 kts 157°
2026-05-03 22:50 50.58376 7.70572 16999 ft 363 kts 157°
2026-05-03 22:51 50.56139 7.72376 17004 ft 357 kts 157°
2026-05-03 22:51 50.53945 7.74141 17000 ft 353 kts 157°
2026-05-03 22:51 50.51757 7.75901 17011 ft 352 kts 158°
2026-05-03 22:51 50.49578 7.77651 17036 ft 352 kts 158°
2026-05-03 22:52 50.47400 7.79399 16892 ft 351 kts 158°
2026-05-03 22:52 50.45229 7.81139 16743 ft 350 kts 158°
2026-05-03 22:52 50.43106 7.83013 16579 ft 353 kts 148°
2026-05-03 22:52 50.41182 7.85407 16341 ft 353 kts 146°
2026-05-03 22:53 50.39262 7.87793 16085 ft 351 kts 146°
2026-05-03 22:53 50.37353 7.90162 15826 ft 349 kts 146°
2026-05-03 22:53 50.35453 7.92517 15581 ft 348 kts 146°
2026-05-03 22:53 50.33558 7.94862 15336 ft 347 kts 146°
2026-05-03 22:54 50.31670 7.97198 15002 ft 345 kts 146°
2026-05-03 22:54 50.29794 7.99515 14637 ft 342 kts 146°
2026-05-03 22:54 50.27936 8.01807 14276 ft 340 kts 146°
2026-05-03 22:54 50.26142 8.04212 13904 ft 342 kts 136°
2026-05-03 22:55 50.24675 8.07161 13537 ft 343 kts 131°
2026-05-03 22:55 50.23231 8.10107 13135 ft 341 kts 132°
2026-05-03 22:55 50.21788 8.13038 12746 ft 339 kts 132°
2026-05-03 22:55 50.20356 8.15942 12345 ft 337 kts 132°
2026-05-03 22:56 50.18930 8.18829 11960 ft 335 kts 132°
2026-05-03 22:56 50.17511 8.21699 11582 ft 333 kts 132°
2026-05-03 22:56 50.16117 8.24516 11207 ft 331 kts 132°
2026-05-03 22:56 50.14713 8.27351 10822 ft 329 kts 132°
2026-05-03 22:57 50.13310 8.30177 10452 ft 329 kts 132°
2026-05-03 22:57 50.11911 8.32994 10120 ft 328 kts 133°
2026-05-03 22:57 50.10673 8.35956 10030 ft 330 kts 117°
2026-05-03 22:57 50.10262 8.39492 9982 ft 341 kts 90°
2026-05-03 22:58 50.10871 8.43072 9990 ft 347 kts 68°
2026-05-03 22:58 50.11794 8.46563 10013 ft 348 kts 71°
2026-05-03 22:58 50.12664 8.50081 10016 ft 348 kts 71°
2026-05-03 22:58 50.13521 8.53607 10020 ft 347 kts 71°
2026-05-03 22:59 50.14356 8.57080 9949 ft 337 kts 72°
2026-05-03 22:59 50.15160 8.60445 9821 ft 327 kts 72°
2026-05-03 22:59 50.15939 8.63715 9679 ft 317 kts 72°
2026-05-03 22:59 50.16696 8.66897 9551 ft 308 kts 72°
2026-05-03 23:00 50.17429 8.69988 9412 ft 301 kts 72°
2026-05-03 23:00 50.18155 8.73050 9288 ft 302 kts 72°
2026-05-03 23:00 50.18884 8.76126 9177 ft 302 kts 72°
2026-05-03 23:00 50.19611 8.79200 9054 ft 301 kts 72°
2026-05-03 23:01 50.20332 8.82260 8936 ft 300 kts 72°
2026-05-03 23:01 50.21050 8.85311 8823 ft 300 kts 72°
2026-05-03 23:01 50.21769 8.88368 8734 ft 299 kts 72°
2026-05-03 23:01 50.22484 8.91415 8686 ft 299 kts 72°
2026-05-03 23:02 50.23198 8.94463 8650 ft 299 kts 72°
2026-05-03 23:02 50.23911 8.97508 8588 ft 299 kts 72°
2026-05-03 23:02 50.24624 9.00564 8556 ft 298 kts 72°
2026-05-03 23:02 50.25335 9.03611 8517 ft 298 kts 72°
2026-05-03 23:03 50.26033 9.06604 8467 ft 298 kts 72°
2026-05-03 23:03 50.26740 9.09649 8426 ft 298 kts 72°
2026-05-03 23:03 50.27457 9.12732 8376 ft 298 kts 72°
2026-05-03 23:03 50.28162 9.15773 8334 ft 297 kts 72°
2026-05-03 23:04 50.28865 9.18805 8304 ft 296 kts 72°
2026-05-03 23:04 50.29564 9.21830 8247 ft 295 kts 72°
2026-05-03 23:04 50.30244 9.24771 8156 ft 287 kts 73°
2026-05-03 23:04 50.30918 9.27696 8085 ft 289 kts 73°
2026-05-03 23:05 50.31382 9.30787 7995 ft 291 kts 95°
2026-05-03 23:05 50.31043 9.33833 7864 ft 280 kts 120°
2026-05-03 23:05 50.30075 9.36395 7679 ft 268 kts 141°
2026-05-03 23:05 50.28578 9.37873 7503 ft 248 kts 172°
2026-05-03 23:06 50.26921 9.37912 7338 ft 235 kts 199°
2026-05-03 23:06 50.25412 9.36939 7182 ft 237 kts 211°
2026-05-03 23:06 50.24565 9.35891 7073 ft 236 kts 227°
2026-05-03 23:06 50.23711 9.33711 6951 ft 237 kts 244°
2026-05-03 23:07 50.23066 9.31340 6795 ft 237 kts 245°
2026-05-03 23:07 50.22450 9.28950 6645 ft 237 kts 246°
2026-05-03 23:07 50.21858 9.26550 6488 ft 236 kts 246°
2026-05-03 23:07 50.21276 9.24138 6332 ft 238 kts 246°
2026-05-03 23:08 50.20710 9.21759 6233 ft 229 kts 246°
2026-05-03 23:08 50.20170 9.19472 6170 ft 220 kts 248°
2026-05-03 23:08 50.19641 9.17216 6058 ft 227 kts 248°
2026-05-03 23:08 50.19087 9.14847 5971 ft 235 kts 249°
2026-05-03 23:09 50.18520 9.12412 5974 ft 240 kts 249°
2026-05-03 23:09 50.17945 9.09954 5972 ft 244 kts 249°
2026-05-03 23:09 50.17367 9.07470 5970 ft 250 kts 249°
2026-05-03 23:09 50.16771 9.04912 5979 ft 252 kts 249°
2026-05-03 23:10 50.16167 9.02343 5982 ft 252 kts 249°
2026-05-03 23:10 50.15564 8.99776 5981 ft 252 kts 249°
2026-05-03 23:10 50.15225 8.97104 5966 ft 254 kts 270°
2026-05-03 23:10 50.15594 8.94422 5984 ft 251 kts 284°
2026-05-03 23:11 50.16454 8.92113 5971 ft 246 kts 310°
2026-05-03 23:11 50.17865 8.90697 5978 ft 243 kts 336°
2026-05-03 23:11 50.19546 8.90293 5984 ft 259 kts 359°
2026-05-03 23:11 50.21359 8.90923 5979 ft 276 kts 24°
2026-05-03 23:12 50.22792 8.92889 5957 ft 279 kts 60°
2026-05-03 23:12 50.23344 8.95750 5968 ft 277 kts 92°
2026-05-03 23:12 50.22970 8.98651 5979 ft 273 kts 116°
2026-05-03 23:12 50.22445 9.01516 5983 ft 280 kts 94°
2026-05-03 23:13 50.22922 9.04436 5924 ft 281 kts 61°
2026-05-03 23:13 50.23831 9.07152 5968 ft 284 kts 74°
2026-05-03 23:13 50.23915 9.10138 5921 ft 273 kts 110°
2026-05-03 23:13 50.22977 9.12616 5948 ft 263 kts 143°
2026-05-03 23:14 50.21439 9.14023 5974 ft 255 kts 167°
2026-05-03 23:14 50.19717 9.14348 5980 ft 247 kts 190°
2026-05-03 23:14 50.18127 9.13509 5886 ft 241 kts 215°
2026-05-03 23:14 50.16947 9.11696 5720 ft 238 kts 238°
2026-05-03 23:15 50.16265 9.09406 5622 ft 227 kts 246°
2026-05-03 23:15 50.15658 9.07197 5540 ft 217 kts 246°
2026-05-03 23:15 50.15089 9.05091 5474 ft 204 kts 248°
2026-05-03 23:15 50.14598 9.03112 5404 ft 188 kts 249°
2026-05-03 23:16 50.14157 9.01278 5323 ft 174 kts 249°
2026-05-03 23:16 50.13750 8.99580 5220 ft 161 kts 249°
2026-05-03 23:16 50.13372 8.97996 5116 ft 154 kts 249°
2026-05-03 23:16 50.12991 8.96397 5084 ft 161 kts 249°
2026-05-03 23:17 50.12593 8.94726 5054 ft 166 kts 249°
2026-05-03 23:17 50.12190 8.93028 4861 ft 167 kts 249°
2026-05-03 23:17 50.11787 8.91330 4658 ft 167 kts 249°
2026-05-03 23:17 50.11385 8.89643 4455 ft 166 kts 249°
2026-05-03 23:18 50.10985 8.87962 4249 ft 165 kts 249°
2026-05-03 23:18 50.10589 8.86298 4041 ft 161 kts 249°
2026-05-03 23:18 50.10209 8.84698 3843 ft 154 kts 249°
2026-05-03 23:18 50.09838 8.83140 3636 ft 153 kts 249°
2026-05-03 23:19 50.09473 8.81608 3464 ft 149 kts 249°
2026-05-03 23:19 50.09116 8.80106 3250 ft 146 kts 249°
2026-05-03 23:19 50.08769 8.78650 3060 ft 142 kts 250°
2026-05-03 23:19 50.08428 8.77216 2873 ft 142 kts 250°
2026-05-03 23:20 50.08087 8.75781 2711 ft 141 kts 250°
2026-05-03 23:20 50.07746 8.74352 2551 ft 141 kts 249°
2026-05-03 23:20 50.07411 8.72943 2350 ft 141 kts 249°
2026-05-03 23:20 50.07069 8.71508 2147 ft 141 kts 249°
2026-05-03 23:21 50.06727 8.70073 1953 ft 141 kts 248°
2026-05-03 23:21 50.06386 8.68640 1755 ft 141 kts 248°
2026-05-03 23:21 50.06043 8.67201 1562 ft 143 kts 249°
2026-05-03 23:21 50.05696 8.65745 1362 ft 144 kts 249°
2026-05-03 23:22 50.04992 8.62793 992 ft 147 kts 249°
2026-05-03 23:22 50.04625 8.61296 884 ft 150 kts 248°
2026-05-03 23:22 50.04253 8.59754 730 ft 153 kts 250°
2026-05-03 23:23 50.03917 8.58290 403 ft 144 kts 250°
2026-05-03 23:23 50.03681 8.57307 363 ft 118 kts 249°
2026-05-03 23:23 50.03560 8.56760 357 ft 0 kts 250°
2026-05-03 23:23 50.03527 8.56633 360 ft 14 kts 246°
2026-05-03 23:24 50.03481 8.56461 354 ft 18 kts 250°
2026-05-03 23:24 50.03450 8.56291 353 ft 13 kts 258°
2026-05-03 23:24 50.03441 8.56153 353 ft 14 kts 268°
2026-05-03 23:24 50.03442 8.56012 349 ft 8 kts 275°
2026-05-03 23:25 50.03454 8.55900 350 ft 12 kts 281°
2026-05-03 23:25 50.03465 8.55801 352 ft 10 kts 285°
2026-05-03 23:25 50.03497 8.55718 350 ft 5 kts 326°
2026-05-03 23:25 50.03526 8.55711 351 ft 4 kts
2026-05-03 23:26 50.03546 8.55725 349 ft 3 kts 36°
2026-05-03 23:26 50.03560 8.55755 351 ft 5 kts 62°
2026-05-03 23:26 50.03577 8.55843 356 ft 13 kts 72°
2026-05-03 23:26 50.03621 8.56012 353 ft 18 kts 70°
2026-05-03 23:27 50.03663 8.56194 356 ft 19 kts 70°
2026-05-03 23:27 50.03710 8.56378 362 ft 14 kts 70°
2026-05-03 23:27 50.03743 8.56531 359 ft 16 kts 70°
2026-05-03 23:27 50.03777 8.56663 356 ft 14 kts 69°
2026-05-03 23:28 50.03813 8.56814 363 ft 16 kts 71°
2026-05-03 23:28 50.03854 8.56991 364 ft 19 kts 70°
2026-05-03 23:28 50.03899 8.57181 365 ft 19 kts 64°
2026-05-03 23:28 50.03946 8.57375 366 ft 20 kts 71°
2026-05-03 23:29 50.03993 8.57588 368 ft 22 kts 71°
2026-05-03 23:29 50.04049 8.57807 370 ft 22 kts 69°
2026-05-03 23:29 50.04105 8.58043 371 ft 22 kts 69°
2026-05-03 23:29 50.04162 8.58276 372 ft 21 kts 68°
2026-05-03 23:30 50.04213 8.58494 371 ft 14 kts 70°
2026-05-03 23:30 50.04285 8.58611 371 ft 17 kts 16°
2026-05-03 23:30 50.04387 8.58634 372 ft 10 kts
2026-05-03 23:30 50.04463 8.58644 373 ft 12 kts 358°
2026-05-03 23:31 50.04553 8.58681 373 ft 15 kts 32°
2026-05-03 23:31 50.04655 8.58756 373 ft 17 kts 11°
2026-05-03 23:31 50.04759 8.58753 373 ft 13 kts 333°
2026-05-03 23:31 50.04794 8.58722 370 ft 4 kts 332°
2026-05-03 23:32 50.04849 8.58695 367 ft 14 kts 347°
2026-05-03 23:32 50.04922 8.58654 365 ft 8 kts 324°
2026-05-03 23:32 50.04959 8.58590 362 ft 8 kts 319°
2026-05-03 23:32 50.05006 8.58544 363 ft 3 kts 345°
2026-05-03 23:33 50.05025 8.58533 363 ft 0 kts 339°